When you browse on this site, cookies collect data to enhance your experience and personalize the content and advertising you see.
Visit our Privacy Policy to learn more. By continuing to use the site, you agree to this use of cookies and data.
  • In Spain
  • List of Countries
  • For 7 days
  • Water Temperature
  • Satellite Maps
  • Weather Map
  • Weather Widgets
  • user-avatar
    Login

    Hourly Weather San Fernando de Apure

    Today, 18 February, Monday

    Time Temperature Precipitation Wind Pressure Humidity
    00:00 +33°C° 0 mm 3 mps 753 mmHg 37%
    01:00 +33°C° 0 mm 3 mps 754 mmHg 40%
    02:00 +32°C° 0 mm 4 mps 754 mmHg 44%
    03:00 +32°C° 0 mm 4 mps 754 mmHg 46%
    04:00 +30°C° 0 mm 4 mps 754 mmHg 48%
    05:00 +30°C° 0 mm 4 mps 754 mmHg 51%
    06:00 +30°C° 0 mm 5 mps 754 mmHg 52%
    07:00 +30°C° 0 mm 5 mps 755 mmHg 53%
    08:00 +29°C° 0 mm 5 mps 755 mmHg 54%
    09:00 +32°C° 0 mm 5 mps 756 mmHg 50%
    10:00 +33°C° 0 mm 5 mps 756 mmHg 46%
    11:00 +35°C° 0 mm 6 mps 756 mmHg 42%
    12:00 +36°C° 0 mm 5 mps 756 mmHg 38%
    13:00 +37°C° 0 mm 5 mps 755 mmHg 35%
    14:00 +39°C° 0 mm 5 mps 754 mmHg 31%
    15:00 +39°C° 0 mm 5 mps 754 mmHg 31%
    16:00 +37°C° 0 mm 5 mps 753 mmHg 32%
    17:00 +37°C° 0 mm 5 mps 753 mmHg 32%
    18:00 +36°C° 0 mm 4 mps 753 mmHg 35%
    19:00 +34°C° 0 mm 3 mps 753 mmHg 38%
    20:00 +32°C° 0 mm 2 mps 753 mmHg 41%
    21:00 +32°C° 0 mm 2 mps 754 mmHg 42%
    22:00 +31°C° 0 mm 1 mps 754 mmHg 44%
    23:00 +30°C° 0 mm 1 mps 754 mmHg 46%

    Tomorrow, 19 February, Tuesday

    Time Temperature Precipitation Wind Pressure Humidity
    00:00 +30°C° 0 mm 2 mps 754 mmHg 47%
    01:00 +30°C° 0 mm 3 mps 754 mmHg 49%
    02:00 +30°C° 0 mm 3 mps 754 mmHg 50%
    03:00 +30°C° 0 mm 4 mps 754 mmHg 52%
    04:00 +29°C° 0 mm 4 mps 754 mmHg 54%
    05:00 +29°C° 0 mm 4 mps 754 mmHg 56%
    06:00 +29°C° 0 mm 4 mps 754 mmHg 56%
    07:00 +29°C° 0 mm 5 mps 755 mmHg 56%
    08:00 +29°C° 0 mm 5 mps 755 mmHg 56%
    09:00 +32°C° 0 mm 5 mps 756 mmHg 52%
    10:00 +33°C° 0 mm 5 mps 756 mmHg 48%
    11:00 +34°C° 0 mm 5 mps 756 mmHg 44%
    12:00 +35°C° 0 mm 5 mps 755 mmHg 40%
    13:00 +36°C° 0 mm 5 mps 754 mmHg 37%
    14:00 +39°C° 0 mm 5 mps 753 mmHg 33%
    15:00 +37°C° 0 mm 4 mps 752 mmHg 32%
    16:00 +37°C° 0 mm 4 mps 752 mmHg 31%
    17:00 +37°C° 0 mm 3 mps 751 mmHg 31%
    18:00 +36°C° 0 mm 3 mps 751 mmHg 33%
    19:00 +35°C° 0 mm 2 mps 752 mmHg 34%
    20:00 +34°C° 0 mm 2 mps 752 mmHg 36%
    21:00 +34°C° 0 mm 2 mps 752 mmHg 37%
    22:00 +33°C° 0 mm 3 mps 753 mmHg 38%
    23:00 +33°C° 0 mm 3 mps 753 mmHg 40%

    Day after tomorrow, 20 February, Wednesday

    Time Temperature Precipitation Wind Pressure Humidity
    00:00 +31°C° 0 mm 3 mps 753 mmHg 47%
    01:00 +30°C° 0 mm 4 mps 753 mmHg 53%
    02:00 +29°C° 0 mm 4 mps 753 mmHg 60%
    03:00 +29°C° 0 mm 4 mps 753 mmHg 61%
    04:00 +29°C° 0 mm 4 mps 753 mmHg 62%
    05:00 +28°C° 0 mm 4 mps 753 mmHg 64%
    06:00 +28°C° 0 mm 4 mps 754 mmHg 62%
    07:00 +29°C° 0 mm 5 mps 754 mmHg 61%
    08:00 +29°C° 0 mm 5 mps 755 mmHg 59%
    09:00 +32°C° 0 mm 5 mps 755 mmHg 53%
    10:00 +33°C° 0 mm 5 mps 755 mmHg 47%
    11:00 +35°C° 0 mm 5 mps 755 mmHg 41%
    12:00 +36°C° 0 mm 5 mps 754 mmHg 38%
    13:00 +39°C° 0 mm 5 mps 753 mmHg 35%
    14:00 +40°C° 0 mm 5 mps 752 mmHg 31%
    15:00 +40°C° 0 mm 5 mps 751 mmHg 31%
    16:00 +40°C° 0 mm 5 mps 750 mmHg 31%
    17:00 +40°C° 0 mm 4 mps 750 mmHg 31%
    18:00 +37°C° 0 mm 4 mps 750 mmHg 34%
    19:00 +35°C° 0 mm 3 mps 751 mmHg 36%
    20:00 +34°C° 0 mm 2 mps 751 mmHg 39%
    21:00 +32°C° 0 mm 2 mps 752 mmHg 41%
    22:00 +32°C° 0 mm 2 mps 752 mmHg 42%
    23:00 +31°C° 0 mm 2 mps 753 mmHg 43%

    21 February, Thursday

    Time Temperature Precipitation Wind Pressure Humidity
    00:00 +30°C° 0 mm 3 mps 753 mmHg 47%
    01:00 +30°C° 0 mm 3 mps 753 mmHg 50%
    02:00 +29°C° 0 mm 4 mps 753 mmHg 54%
    03:00 +29°C° 0 mm 4 mps 753 mmHg 56%
    04:00 +29°C° 0 mm 4 mps 753 mmHg 58%
    05:00 +28°C° 0 mm 4 mps 753 mmHg 60%
    06:00 +28°C° 0 mm 4 mps 754 mmHg 57%
    07:00 +29°C° 0 mm 5 mps 754 mmHg 54%
    08:00 +29°C° 0 mm 5 mps 755 mmHg 51%
    09:00 +32°C° 0 mm 5 mps 755 mmHg 46%
    10:00 +34°C° 0 mm 5 mps 756 mmHg 40%
    11:00 +35°C° 0 mm 5 mps 756 mmHg 34%
    12:00 +37°C° 0 mm 5 mps 755 mmHg 31%
    13:00 +39°C° 0 mm 5 mps 753 mmHg 28%
    14:00 +40°C° 0 mm 5 mps 752 mmHg 25%
    15:00 +40°C° 0 mm 5 mps 752 mmHg 24%
    16:00 +40°C° 0 mm 5 mps 751 mmHg 23%
    17:00 +40°C° 0 mm 4 mps 750 mmHg 22%
    18:00 +37°C° 0 mm 3 mps 751 mmHg 25%
    19:00 +35°C° 0 mm 3 mps 751 mmHg 27%
    20:00 +34°C° 0 mm 2 mps 752 mmHg 29%
    21:00 +32°C° 0 mm 2 mps 752 mmHg 32%
    22:00 +33°C° 0 mm 3 mps 753 mmHg 36%
    23:00 +33°C° 0 mm 4 mps 753 mmHg 39%

    22 February, Friday

    Time Temperature Precipitation Wind Pressure Humidity
    00:00 +32°C° 0 mm 4 mps 753 mmHg 46%
    01:00 +30°C° 0 mm 4 mps 753 mmHg 52%
    02:00 +29°C° 0 mm 4 mps 753 mmHg 59%
    03:00 +29°C° 0 mm 4 mps 753 mmHg 58%
    04:00 +29°C° 0 mm 4 mps 753 mmHg 58%
    05:00 +29°C° 0 mm 4 mps 753 mmHg 57%
    06:00 +29°C° 0 mm 4 mps 754 mmHg 54%
    07:00 +29°C° 0 mm 5 mps 755 mmHg 52%
    08:00 +29°C° 0 mm 5 mps 755 mmHg 49%
    09:00 +32°C° 0 mm 5 mps 755 mmHg 45%
    10:00 +33°C° 0 mm 6 mps 756 mmHg 41%
    11:00 +35°C° 0 mm 6 mps 756 mmHg 37%
    12:00 +36°C° 0 mm 5 mps 755 mmHg 35%
    13:00 +37°C° 0 mm 5 mps 754 mmHg 33%
    14:00 +40°C° 0 mm 5 mps 752 mmHg 31%
    15:00 +40°C° 0 mm 5 mps 752 mmHg 30%
    16:00 +40°C° 0 mm 5 mps 751 mmHg 29%
    17:00 +40°C° 0 mm 4 mps 751 mmHg 29%
    18:00 +37°C° 0 mm 4 mps 751 mmHg 31%
    19:00 +35°C° 0 mm 3 mps 752 mmHg 33%
    20:00 +34°C° 0 mm 2 mps 752 mmHg 36%
    21:00 +33°C° 0 mm 3 mps 753 mmHg 37%
    22:00 +33°C° 0 mm 3 mps 753 mmHg 38%
    23:00 +32°C° 0 mm 4 mps 754 mmHg 38%

    23 February, Saturday

    Time Temperature Precipitation Wind Pressure Humidity
    00:00 +32°C° 0 mm 4 mps 754 mmHg 45%
    01:00 +30°C° 0 mm 4 mps 754 mmHg 52%
    02:00 +29°C° 0 mm 4 mps 754 mmHg 59%
    03:00 +29°C° 0 mm 4 mps 754 mmHg 60%
    04:00 +29°C° 0 mm 4 mps 754 mmHg 60%
    05:00 +28°C° 0 mm 4 mps 754 mmHg 61%
    06:00 +28°C° 0 mm 4 mps 754 mmHg 60%
    07:00 +29°C° 0 mm 5 mps 755 mmHg 59%
    08:00 +29°C° 0 mm 5 mps 755 mmHg 57%
    09:00 +32°C° 0 mm 5 mps 755 mmHg 51%
    10:00 +34°C° 0 mm 6 mps 756 mmHg 44%
    11:00 +35°C° 0 mm 6 mps 756 mmHg 38%
    12:00 +37°C° 0 mm 5 mps 754 mmHg 34%
    13:00 +39°C° 0 mm 5 mps 753 mmHg 31%
    14:00 +40°C° 0 mm 5 mps 752 mmHg 28%
    15:00 +40°C° 0 mm 5 mps 751 mmHg 27%
    16:00 +40°C° 0 mm 5 mps 751 mmHg 26%
    17:00 +40°C° 0 mm 4 mps 750 mmHg 25%
    18:00 +38°C° 0 mm 4 mps 750 mmHg 28%
    19:00 +36°C° 0 mm 3 mps 751 mmHg 31%
    20:00 +35°C° 0 mm 3 mps 751 mmHg 34%
    21:00 +34°C° 0 mm 3 mps 752 mmHg 38%
    22:00 +33°C° 0 mm 4 mps 753 mmHg 43%
    23:00 +33°C° 0 mm 5 mps 753 mmHg 47%
    Show more